EW6204 Weather Reports


time (UTC)temp
F
wind
direction
speed
knots
gust
knots
rain 1hr
in
rain 24hr
in
rain mn
in
humidity
%
barometer
mb
20260507223056 67 0 0.9 7.0 0.00 0.00 0.00 57 1017.1
20260507221601 67 0 0.9 5.2 0.00 0.00 0.00 59 1017.1
20260507220058 66 0 0.0 6.1 0.00 0.00 0.00 57 1017.3
20260507214608 65 0 0.0 6.1 0.00 0.00 0.00 60 1017.6
20260507213116 64 5 2.6 8.7 0.00 0.00 0.00 63 1017.7
20260507211616 63 0 1.7 8.7 0.00 0.00 0.00 64 1017.8
20260507210105 63 0 0.0 11.3 0.00 0.00 0.00 62 1018.1
20260507204607 64 352 0.0 9.6 0.00 0.00 0.00 67 1018.3
20260507203110 62 341 3.5 8.7 0.00 0.00 0.00 68 1018.4
20260507201642 62 0 1.7 7.0 0.00 0.00 0.00 68 1018.5
20260507200107 62 13 1.7 7.0 0.00 0.00 0.00 67 1018.6
20260507194556 61 9 4.3 10.4 0.00 0.00 0.00 66 1018.7
20260507193104 61 0 0.0 5.2 0.00 0.00 0.00 69 1018.9
20260507191602 60 351 2.6 7.0 0.00 0.00 0.00 70 1019.2
20260507190116 59 0 3.5 7.8 0.00 0.00 0.00 69 1019.2
20260507184600 58 0 1.7 7.8 0.00 0.00 0.00 71 1019.4
20260507183101 58 349 1.7 7.0 0.00 0.00 0.00 72 1019.4
20260507181605 57 348 3.5 8.7 0.00 0.00 0.00 74 1019.6
20260507180058 57 0 2.6 7.0 0.00 0.00 0.00 72 1019.8
20260507174557 56 5 4.3 9.6 0.00 0.00 0.00 75 1019.8
20260507173102 56 0 4.3 7.8 0.00 0.00 0.00 73 1019.9
20260507171605 55 352 4.3 7.0 0.00 0.00 0.00 76 1020.0
20260507164605 54 352 4.3 9.6 0.00 0.00 0.00 77 1019.9
20260507163057 55 5 1.7 7.0 0.00 0.00 0.00 78 1019.8
20260507161556 54 0 2.6 7.0 0.00 0.00 0.00 78 1019.7
20260507160057 54 11 1.7 4.3 0.00 0.00 0.00 79 1019.9
20260507154559 54 5 1.7 5.2 0.00 0.00 0.00 79 1019.8
20260507153101 53 9 2.6 4.3 0.00 0.00 0.00 79 1020.1
20260507151558 53 17 2.6 5.2 0.00 0.00 0.00 80 1020.1
20260507144651 53 5 2.6 5.2 0.00 0.00 0.00 81 1020.0
20260507143105 53 352 0.9 5.2 0.00 0.00 0.00 81 1020.0
20260507141555 52 352 0.0 3.5 0.00 0.00 0.00 83 1019.9
20260507140057 52 0 0.0 2.6 0.00 0.00 0.00 83 1019.6
20260507134616 52 0 0.0 0.9 0.00 0.00 0.00 83 1019.6
20260507133133 52 0 0.0 0.0 0.00 0.00 0.00 83 1019.5
20260507131610 52 0 0.0 0.0 0.00 0.00 0.00 82 1019.7
20260507130109 52 0 0.0 0.0 0.00 0.00 0.00 83 1019.7
20260507124613 52 0 0.0 0.0 0.00 0.00 0.00 84 1019.7
20260507123056 52 0 0.0 2.6 0.00 0.00 0.00 83 1019.7
20260507121611 52 0 0.0 0.9 0.00 0.00 0.00 82 1019.8
20260507120109 52 0 0.9 5.2 0.00 0.00 0.00 81 1019.9
20260507114635 52 0 0.0 5.2 0.00 0.00 0.00 82 1020.1
20260507113056 52 331 0.9 2.6 0.00 0.00 0.00 83 1020.2
20260507111602 52 331 1.7 4.3 0.00 0.00 0.00 84 1020.2
20260507110059 52 0 0.0 2.6 0.00 0.00 0.00 83 1020.2
20260507104558 53 328 0.9 4.3 0.00 0.00 0.00 83 1020.2
20260507103110 52 321 0.9 4.3 0.00 0.00 0.00 84 1020.3
20260507101603 53 314 1.7 4.3 0.00 0.00 0.00 84 1020.4
20260507094604 53 0 0.0 0.0 0.00 0.00 0.00 86 1020.5
20260507093055 53 0 0.0 0.0 0.00 0.00 0.00 86 1020.6
20260507091557 53 0 0.0 0.0 0.00 0.00 0.00 86 1020.8
20260507090107 53 0 0.0 0.0 0.00 0.00 0.00 86 1020.9
20260507084600 53 0 0.0 0.0 0.00 0.00 0.00 86 1020.9
20260507083057 53 0 0.0 0.0 0.00 0.00 0.00 87 1020.8
20260507081558 53 0 0.0 0.0 0.00 0.00 0.00 86 1020.8
20260507080119 53 0 0.0 0.0 0.00 0.00 0.00 85 1020.8
20260507074608 53 0 0.0 0.0 0.00 0.00 0.00 85 1020.7
20260507073108 54 0 0.0 0.0 0.00 0.00 0.00 85 1020.7
20260507071559 54 0 0.0 0.0 0.00 0.00 0.00 85 1020.6
20260507070104 53 0 0.0 0.0 0.00 0.00 0.00 85 1020.7
20260507064600 54 0 0.0 0.0 0.00 0.00 0.00 84 1020.7
20260507063107 53 0 0.0 0.0 0.00 0.00 0.00 84 1020.7
20260507061554 53 0 0.0 0.0 0.00 0.00 0.00 85 1020.7
20260507060056 53 0 0.0 0.0 0.00 0.00 0.00 86 1020.6
20260507054603 53 0 0.0 0.0 0.00 0.00 0.00 84 1020.5
20260507053108 53 0 0.0 0.0 0.00 0.00 0.00 84 1020.7
20260507051557 54 0 0.0 0.0 0.00 0.00 0.00 82 1020.7
20260507050111 55 0 0.0 0.0 0.00 0.00 0.00 82 1020.7
20260507044556 55 0 0.0 0.0 0.00 0.00 0.00 82 1020.7
20260507043058 54 0 0.0 4.3 0.00 0.00 0.00 82 1020.6
20260507041559 55 0 0.0 1.7 0.00 0.00 0.00 81 1020.4
20260507040100 55 0 0.0 2.6 0.00 0.00 0.00 79 1020.3
20260507034557 56 0 0.0 3.5 0.00 0.00 0.00 78 1020.1
20260507033101 58 236 0.9 4.3 0.00 0.00 0.00 77 1019.8
20260507031556 59 0 0.0 2.6 0.00 0.00 0.00 75 1019.8
20260507030058 60 0 0.0 4.3 0.00 0.00 0.00 74 1019.5
20260507024605 61 231 0.9 7.8 0.00 0.00 0.00 72 1019.4
20260507023248 62 0 0.9 6.1 0.00 0.00 0.00 71 1019.4
20260507023112 62 0 0.9 6.1 0.00 0.00 0.00 71 1019.4
20260507021556 64 0 2.6 8.7 0.00 0.00 0.00 69 1019.3
20260507020114 66 0 0.9 7.8 0.00 0.00 0.00 68 1019.3
20260507014605 67 0 3.5 7.8 0.00 0.00 0.00 66 1019.2
20260507013059 68 222 1.7 7.0 0.00 0.00 0.00 67 1019.1
20260507011559 69 0 0.9 6.1 0.00 0.00 0.00 65 1019.0
20260507010104 68 352 1.7 5.2 0.00 0.00 0.00 65 1019.1
20260507004607 67 0 0.0 1.7 0.00 0.00 0.00 65 1019.1
20260507003100 69 0 0.0 2.6 0.00 0.00 0.00 64 1019.1
20260507001600 68 0 0.0 5.2 0.00 0.00 0.00 67 1019.1
20260506234559 67 360 4.3 7.8 0.00 0.00 0.00 67 1019.0
20260506233113 67 352 0.9 3.5 0.00 0.00 0.00 67 1019.2
20260506231611 67 5 1.7 5.2 0.00 0.00 0.00 70 1019.3
20260506230110 66 360 2.6 7.8 0.00 0.00 0.00 68 1019.3
20260506224556 67 0 0.0 7.8 0.00 0.00 0.00 69 1019.4